DateTimeUTC,F1_A11,F1_S11,BsB_S11,BsG_S11,BsR_S11,BbsB_S11,BbsG_S11,BbsR_S11,BaB_A11,BaG_A11,BaR_A11,Tu_S11,T_S11,Uu_S11,U_S11,P_S11,T1_A11
2021-04-26T13:00:00Z,00000200,20000000,,,,,,,-000.03,-000.04,0000.14,17.9,24.5,02.5,01.7,0685.3,31.1
2021-04-26T13:01:00Z,00000200,20000000,,,,,,,0000.01,-000.26,-000.09,17.9,24.5,02.5,01.7,0685.3,31.1
2021-04-26T13:02:00Z,00000200,20000000,,,,,,,0000.11,0000.13,0000.16,17.9,24.5,02.5,01.7,0685.3,31.1
2021-04-26T13:03:00Z,00000200,60000000,,,,,,,0000.36,0000.16,0000.38,17.9,24.5,02.5,01.7,0685.3,31.1
2021-04-26T13:04:00Z,00000200,40000000,0001.92,0002.00,0000.81,0000.32,0000.11,-000.09,0000.73,0000.75,0000.36,18.0,24.4,02.6,01.8,0686.3,31.1
2021-04-26T13:05:00Z,00000200,00000000,0003.03,0001.99,0001.21,0000.35,0000.28,0000.47,0000.79,0001.08,0000.50,18.1,24.4,02.7,01.8,0686.4,31.1
2021-04-26T13:06:00Z,00000200,00000000,0003.27,0002.03,0001.21,0000.52,0000.41,0000.31,0000.86,0000.53,0000.89,18.1,24.4,02.7,01.8,0686.4,31.1
2021-04-26T13:07:00Z,00000200,00000000,0002.82,0001.83,0001.17,0000.37,0000.03,0000.23,0000.24,0000.40,-000.14,18.1,24.4,02.6,01.7,0686.4,31.1
2021-04-26T13:08:00Z,00000200,00000000,0003.03,0001.72,0001.12,0000.54,0000.25,0000.30,0000.52,0000.48,0000.62,18.1,24.4,02.6,01.8,0686.4,31.1
2021-04-26T13:09:00Z,00000200,00000000,0002.90,0001.79,0001.00,0000.21,0000.16,0000.40,0001.10,0000.72,0000.56,18.2,24.5,02.5,01.7,0686.4,31.1
2021-04-26T13:10:00Z,00000200,00000000,0001.91,0001.71,0001.19,0000.53,0000.06,0000.27,0000.92,0000.99,0000.53,18.2,24.5,02.4,01.7,0686.4,31.1
2021-04-26T13:11:00Z,00000200,00000000,0002.80,0001.67,0000.90,0000.44,0000.24,0000.42,0000.41,0000.33,0000.41,18.2,24.5,02.5,01.7,0686.4,31.1
2021-04-26T13:12:00Z,00000200,00000000,0002.80,0001.71,0001.05,0000.53,0000.22,0000.15,0000.66,0000.61,0000.46,18.2,24.5,02.5,01.7,0686.4,31.1
2021-04-26T13:13:00Z,00000200,00000000,0002.52,0001.72,0001.06,0000.87,0000.30,0000.18,0000.56,0000.60,0000.27,18.3,24.5,02.5,01.7,0686.4,31.1
2021-04-26T13:14:00Z,00000200,00000000,0002.43,0002.23,0001.02,0000.46,0000.28,0000.21,0000.70,0000.47,0000.37,18.3,24.6,02.5,01.7,0686.4,31.1
2021-04-26T13:15:00Z,00000200,00000000,0002.32,0001.96,0001.46,0000.41,0000.18,0000.45,0000.77,0000.60,0000.67,18.3,24.5,02.5,01.7,0686.4,31.1
2021-04-26T13:16:00Z,00000200,00000000,0002.53,0002.05,0001.17,-000.01,0000.46,0000.26,0000.83,0000.72,0000.62,18.3,24.6,02.6,01.8,0686.3,31.1
2021-04-26T13:17:00Z,00000200,00000000,0002.70,0001.58,0001.17,0000.55,0000.34,0000.52,0000.91,0000.92,0000.48,18.3,24.6,02.6,01.8,0686.3,31.1
2021-04-26T13:18:00Z,00000200,00000000,0002.59,0001.81,0001.03,0000.18,0000.36,0000.33,0000.39,0001.11,0000.56,18.3,24.6,02.6,01.8,0686.3,31.1
2021-04-26T13:19:00Z,00000200,00000000,0002.80,0002.26,0001.17,-000.04,0000.49,0000.07,0000.95,0000.51,0000.59,18.4,24.6,02.7,01.9,0686.3,31.1
2021-04-26T13:20:00Z,00000200,00000000,0002.86,0001.73,0001.11,0000.52,0000.20,0000.19,0000.98,0000.29,0000.36,18.4,24.6,02.8,01.9,0686.3,31.1
2021-04-26T13:21:00Z,00000200,00000000,0002.52,0001.94,0000.86,0000.54,0000.05,0000.35,0000.12,0000.35,0000.20,18.4,24.6,02.7,01.8,0686.3,31.1
2021-04-26T13:22:00Z,00000200,00000000,0002.64,0001.71,0001.15,0000.42,0000.15,0000.27,0000.73,0000.45,0000.48,18.4,24.7,02.5,01.7,0686.2,31.1
2021-04-26T13:23:00Z,00000200,00000000,0002.72,0001.67,0001.08,0000.30,0000.39,0000.27,0001.00,0001.37,0000.68,18.4,24.7,02.6,01.8,0686.2,31.1
2021-04-26T13:24:00Z,00000200,00000000,0002.67,0001.79,0000.95,0000.76,0000.32,0000.39,0000.98,0000.69,0000.91,18.4,24.7,02.7,01.9,0686.2,31.1
2021-04-26T13:25:00Z,00000200,00000000,0002.54,0002.09,0001.00,0000.32,0000.51,0000.36,0000.81,0000.88,0000.54,18.4,24.7,02.7,01.8,0686.2,31.1
2021-04-26T13:26:00Z,00000200,00000000,0002.36,0001.73,0000.75,0000.40,0000.30,0000.19,0000.90,0000.66,0000.97,18.4,24.7,02.8,01.9,0686.2,31.1
2021-04-26T13:27:00Z,00000200,00000000,0002.66,0001.33,0001.13,0000.74,0000.59,0000.26,0001.01,0000.75,-000.02,18.5,24.7,02.9,02.0,0686.2,31.1
2021-04-26T13:28:00Z,00000200,00000000,0002.81,0001.53,0001.41,-000.11,0000.07,0000.26,0000.59,0000.60,0000.71,18.5,24.7,02.9,02.0,0686.2,31.1
2021-04-26T13:29:00Z,00000200,00000000,0002.70,0001.96,0001.01,0000.64,0000.20,0000.10,0000.57,0000.73,0000.26,18.5,24.8,02.9,01.9,0686.2,31.1
2021-04-26T13:30:00Z,00000200,00000000,0002.42,0001.84,0001.23,0000.36,0000.15,0000.23,0000.89,0000.79,0000.57,18.5,24.8,02.9,02.0,0686.2,31.1
2021-04-26T13:31:00Z,00000200,00000000,0002.29,0001.87,0000.99,0000.41,0000.26,0000.33,0000.90,0000.64,0000.50,18.5,24.8,03.0,02.0,0686.2,31.1
2021-04-26T13:32:00Z,00000200,00000000,0002.46,0001.71,0000.78,0000.68,0000.32,0000.47,0000.20,0000.60,0000.46,18.5,24.8,02.9,02.0,0686.2,31.1
2021-04-26T13:33:00Z,00000200,00000000,0003.25,0001.40,0000.86,0000.72,0000.35,0000.05,0000.96,0000.31,0000.36,18.5,24.8,02.9,02.0,0686.2,31.1
2021-04-26T13:34:00Z,00000200,00000000,0003.06,0001.69,0001.03,0000.78,0000.45,0000.11,0000.45,0000.86,0000.34,18.5,24.8,02.9,02.0,0686.2,31.1
2021-04-26T13:35:00Z,00000200,00000000,0002.88,0001.85,0000.71,0000.52,0000.27,0000.35,0000.55,0000.14,0000.61,18.6,24.8,02.9,02.0,0686.2,31.1
2021-04-26T13:36:00Z,00000200,00000000,0002.50,0001.61,0000.89,0001.00,0000.37,0000.10,0000.91,0000.86,0000.85,18.6,24.8,03.0,02.0,0686.2,31.1
2021-04-26T13:37:00Z,00000200,00000000,0002.18,0001.84,0001.11,0000.83,0000.32,0000.48,0000.82,0000.93,0000.40,18.6,24.8,03.0,02.0,0686.2,31.1
2021-04-26T13:38:00Z,00000200,00000000,0002.43,0001.91,0001.31,0000.42,0000.21,0000.35,0000.65,0000.78,0000.17,18.6,24.9,03.0,02.0,0686.2,31.1
2021-04-26T13:39:00Z,00000200,00000000,0002.52,0001.87,0001.33,0000.36,0000.22,0000.25,0000.63,0000.56,0000.68,18.6,24.9,02.9,02.0,0686.2,31.1
2021-04-26T13:40:00Z,00000200,00000000,0002.79,0001.79,0001.01,0000.51,0000.50,0000.31,0001.14,0000.53,0000.46,18.6,24.9,02.9,02.0,0686.2,31.1
2021-04-26T13:41:00Z,00000200,00000000,0002.38,0001.87,0001.15,0000.71,0000.32,0000.30,-000.12,0000.12,0000.52,18.6,24.9,02.9,02.0,0686.2,31.1
2021-04-26T13:42:00Z,00000200,00000000,0002.46,0001.65,0000.86,0000.46,0000.52,0000.02,0000.78,0000.76,0000.04,18.7,24.9,02.8,01.9,0686.2,31.1
2021-04-26T13:43:00Z,00000200,00000000,0002.52,0001.95,0000.82,0000.75,0000.18,0000.23,0000.94,0000.80,0000.91,18.7,24.9,02.9,01.9,0686.2,31.1
2021-04-26T13:44:00Z,00000200,00000000,0002.53,0001.63,0001.02,0000.56,0000.27,0000.24,0000.81,0001.21,0000.69,18.7,24.9,02.9,02.0,0686.2,31.1
2021-04-26T13:45:00Z,00000200,00000000,0002.56,0001.66,0001.40,0000.46,0000.39,0000.12,0000.83,0000.62,0000.53,18.7,24.9,02.9,02.0,0686.2,31.1
2021-04-26T13:46:00Z,00000200,00000000,0002.44,0002.11,0000.96,0000.61,0000.28,0000.31,0000.75,0000.38,0000.54,18.7,24.9,02.9,02.0,0686.2,31.1
2021-04-26T13:47:00Z,00000200,00000000,0002.21,0001.71,0001.03,0000.35,0000.07,0000.56,0000.74,0000.93,0000.40,18.7,24.9,03.0,02.1,0686.2,31.1
2021-04-26T13:48:00Z,00000200,00000000,0002.33,0001.90,0001.14,-000.07,0000.33,0000.35,0000.77,0000.29,0000.63,18.7,25.0,02.9,02.0,0686.2,31.1
2021-04-26T13:49:00Z,00000200,00000000,0002.81,0001.54,0000.88,0000.40,0000.23,0000.03,0000.26,0000.81,0000.27,18.7,25.0,02.9,02.0,0686.2,31.1
2021-04-26T13:50:00Z,00000200,00000000,0002.12,0001.70,0000.78,0000.83,0000.39,0000.15,0001.22,0000.62,0000.68,18.7,25.0,03.0,02.0,0686.2,31.1
2021-04-26T13:51:00Z,00000200,00000000,0002.92,0002.00,0000.68,0000.46,0000.11,0000.09,0001.21,0000.76,0000.63,18.7,25.0,03.0,02.1,0686.2,31.1
2021-04-26T13:52:00Z,00000200,00000000,0002.93,0001.68,0001.04,0000.48,0000.31,0000.13,0000.65,0000.92,0000.53,18.7,25.0,03.1,02.1,0686.2,31.0
2021-04-26T13:53:00Z,00000200,00000000,0002.13,0001.78,0001.21,0000.46,0000.17,0000.42,0000.52,0000.35,0000.37,18.7,25.0,02.9,02.0,0686.2,31.0
2021-04-26T13:54:00Z,00000200,00000000,0002.23,0001.70,0001.25,0000.26,0000.34,0000.39,0001.03,0000.56,0000.43,18.7,25.0,02.8,01.9,0686.2,30.9
2021-04-26T13:55:00Z,00000200,00000000,0002.06,0001.53,0000.93,0000.01,0000.17,0000.36,0000.45,0000.89,0000.10,18.7,25.0,02.7,01.8,0686.2,30.9
2021-04-26T13:56:00Z,00000200,00000000,0001.81,0001.69,0001.00,0000.10,0000.37,0000.21,0001.36,0000.74,0000.99,18.7,25.0,02.8,01.9,0686.2,30.9
2021-04-26T13:57:00Z,00000200,40000000,,,,,,,0000.20,0000.27,0000.24,18.7,25.0,03.2,02.2,0686.1,30.9
2021-04-26T13:58:00Z,00000200,60000000,,,,,,,0000.03,-000.14,0000.21,18.5,25.1,02.9,01.9,0685.1,30.9
2021-04-26T13:59:00Z,00000200,20000000,,,,,,,-000.08,0000.17,-000.07,18.5,25.2,02.9,01.9,0685.1,30.8
